Date String (YYYY-MM-DD hh:mm:ss) UTC,Instrument flags,Ambient pressure (hPa),Sample flow (lpm),Bypass flow (lpm),Sample temperature (°C),Ambient temperature (°C),ASC tube jacket temperature (°C),LED temperature (°C),Box temperature (°C),Sample RH (%),Span deviation,Mass concentration (μg/m³),Mass concentration (μg/m³),Mass concentration (μg/m³)
DateTimeUTC,F1_M11,P_M11,Q1_M11,Q2_M11,T1_M11,T2_M11,T3_M11,T4_M11,T5_M11,U1_M11,ZSPAN_M11,X0_M11,X2_M11,X1_M11
2022-06-26 22:00:00,,0836.8,5.01,0.00,30.0,29.1,00.0,38.7,31.9,22.2,0001.8,0013.11,0006.47,0005.55
2022-06-26 22:01:00,,0836.9,5.00,0.00,30.0,29.1,00.0,38.7,31.9,22.2,0001.6,0013.52,0006.47,0005.55
2022-06-26 22:02:00,,0836.8,4.99,0.00,30.0,29.1,00.0,38.8,31.9,22.2,0001.6,0013.36,0006.46,0005.55
2022-06-26 22:03:00,,0836.8,5.00,0.00,30.0,29.2,00.0,38.8,32.0,22.1,0001.4,0012.98,0006.49,0005.57
2022-06-26 22:04:00,,0836.7,5.00,0.00,30.0,29.2,00.0,38.8,32.0,22.1,0001.2,0013.30,0006.52,0005.60
2022-06-26 22:05:00,,0836.7,5.00,0.00,30.1,29.2,00.0,38.8,32.0,22.1,0001.0,0013.06,0006.54,0005.61
2022-06-26 22:06:00,,0836.7,4.98,0.00,30.1,29.2,00.0,38.8,32.0,22.2,0001.0,0013.20,0006.58,0005.61
2022-06-26 22:07:00,,0836.7,5.00,0.00,30.1,29.0,00.0,38.8,32.0,22.3,0001.0,0013.31,0006.53,0005.63
2022-06-26 22:08:00,,0836.6,4.99,0.00,30.0,28.2,00.0,38.7,31.8,22.4,0001.4,0013.81,0006.52,0005.64
2022-06-26 22:09:00,,0836.6,5.00,0.00,30.0,27.8,00.0,38.7,31.6,22.3,0001.3,0013.93,0006.48,0005.62
2022-06-26 22:10:00,,0836.6,5.00,0.00,29.9,27.7,00.0,38.7,31.5,22.4,0001.5,0014.04,0006.46,0005.63
2022-06-26 22:11:00,,0836.6,5.00,0.00,29.8,27.8,00.0,38.7,31.5,22.5,0001.5,0013.43,0006.49,0005.65
2022-06-26 22:12:00,,0836.6,5.00,0.00,29.8,27.9,00.0,38.7,31.5,22.6,0001.4,0013.26,0006.52,0005.68
2022-06-26 22:13:00,,0836.6,5.01,0.00,29.8,28.0,00.0,38.7,31.5,22.5,0000.7,0013.21,0006.53,0005.69
2022-06-26 22:14:00,,0836.6,5.00,0.00,29.8,28.1,00.0,38.6,31.5,22.6,0000.5,0013.44,0006.56,0005.70
2022-06-26 22:15:00,,0836.6,4.99,0.00,29.8,28.2,00.0,38.6,31.6,23.3,0000.6,0013.02,0006.58,0005.71
2022-06-26 22:16:00,,0836.5,5.01,0.00,29.8,28.3,00.0,38.6,31.6,22.9,0000.4,0013.30,0006.60,0005.70
2022-06-26 22:17:00,,0836.5,5.00,0.00,29.8,28.4,00.0,38.6,31.6,23.2,0000.4,0013.22,0006.56,0005.69
2022-06-26 22:18:00,,0836.5,4.99,0.00,29.8,28.5,00.0,38.6,31.6,22.6,0000.4,0013.02,0006.57,0005.70
2022-06-26 22:19:00,,0836.5,4.99,0.00,29.8,28.5,00.0,38.6,31.6,23.3,-000.1,0012.51,0006.57,0005.71
2022-06-26 22:20:00,,0836.5,5.02,0.00,29.8,28.6,00.0,38.6,31.6,23.0,0000.1,0012.50,0006.60,0005.74
2022-06-26 22:21:00,,0836.5,5.01,0.00,29.8,28.6,00.0,38.6,31.6,22.9,-000.4,0013.27,0006.61,0005.74
2022-06-26 22:22:00,,0836.5,5.00,0.00,29.8,28.7,00.0,38.6,31.6,23.1,-000.5,0014.58,0006.59,0005.75
2022-06-26 22:23:00,,0836.4,5.00,0.00,29.8,28.7,00.0,38.6,31.6,22.9,-000.6,0014.52,0006.61,0005.75
2022-06-26 22:24:00,,0836.4,5.01,0.00,29.8,28.7,00.0,38.6,31.6,23.4,-000.4,0014.45,0006.63,0005.74
2022-06-26 22:25:00,,0836.3,5.01,0.00,29.8,28.7,00.0,38.6,31.6,23.2,-000.3,0014.72,0006.62,0005.76
2022-06-26 22:26:00,,0836.2,4.98,0.00,29.8,28.7,00.0,38.6,31.6,23.2,-000.7,0014.95,0006.63,0005.76
2022-06-26 22:27:00,,0836.2,5.01,0.00,29.8,28.7,00.0,38.6,31.6,23.2,-000.7,0015.53,0006.62,0005.78
2022-06-26 22:28:00,,0836.2,5.01,0.00,29.8,28.7,00.0,38.6,31.6,23.4,-000.3,0015.76,0006.66,0005.82
2022-06-26 22:29:00,,0836.2,4.99,0.00,29.8,28.7,00.0,38.6,31.6,23.3,-000.1,0015.86,0006.71,0005.84
2022-06-26 22:30:00,,0836.2,5.00,0.00,29.8,28.7,00.0,38.6,31.6,23.4,0000.2,0015.91,0006.76,0005.85
2022-06-26 22:31:00,,0836.2,5.00,0.00,29.8,28.7,00.0,38.6,31.5,23.5,-000.1,0016.69,0006.79,0005.85
2022-06-26 22:32:00,,0836.1,5.01,0.00,29.8,28.7,00.0,38.6,31.5,23.9,0000.2,0016.74,0006.82,0005.86
2022-06-26 22:33:00,,0836.0,5.00,0.00,29.7,28.7,00.0,38.6,31.5,23.7,0001.0,0016.77,0006.80,0005.85
2022-06-26 22:34:00,,0836.0,4.99,0.00,29.7,28.7,00.0,38.6,31.5,23.6,0001.6,0018.24,0006.75,0005.84
2022-06-26 22:35:00,,0835.9,5.00,0.00,29.7,28.7,00.0,38.6,31.5,23.7,0001.7,0018.04,0006.70,0005.83
2022-06-26 22:36:00,,0835.9,5.00,0.00,29.7,28.7,00.0,38.6,31.5,24.1,0001.9,0017.43,0006.67,0005.82
2022-06-26 22:37:00,,0835.9,5.00,0.00,29.7,28.7,00.0,38.6,31.5,23.9,0002.1,0017.26,0006.65,0005.82
2022-06-26 22:38:00,,0835.8,4.99,0.00,29.7,28.7,00.0,38.6,31.5,23.8,0002.2,0016.44,0006.64,0005.78
2022-06-26 22:39:00,,0835.7,5.00,0.00,29.7,28.7,00.0,38.6,31.5,24.2,0002.0,0016.58,0006.60,0005.74
2022-06-26 22:40:00,,0835.7,5.00,0.00,29.7,28.6,00.0,38.6,31.5,24.4,0001.9,0016.78,0006.56,0005.70
2022-06-26 22:41:00,,0835.7,4.99,0.00,29.7,28.6,00.0,38.6,31.5,24.6,0001.4,0016.68,0006.52,0005.66
2022-06-26 22:42:00,,0835.6,5.00,0.00,29.7,28.6,00.0,38.6,31.5,24.4,0001.1,0015.89,0006.48,0005.62
2022-06-26 22:43:00,,0835.6,5.00,0.00,29.7,28.6,00.0,38.6,31.5,24.2,0000.8,0015.27,0006.42,0005.57
2022-06-26 22:44:00,,0835.6,5.01,0.00,29.7,28.6,00.0,38.6,31.5,24.4,0000.3,0014.35,0006.39,0005.55
2022-06-26 22:45:00,,0835.6,4.99,0.00,29.7,28.6,00.0,38.6,31.4,24.7,-000.2,0012.55,0006.34,0005.50
2022-06-26 22:46:00,,0835.5,5.00,0.00,29.7,28.6,00.0,38.6,31.4,24.6,-000.1,0012.46,0006.36,0005.48
2022-06-26 22:47:00,,0835.5,4.99,0.00,29.7,28.6,00.0,38.6,31.4,24.6,0000.3,0012.50,0006.35,0005.46
2022-06-26 22:48:00,,0835.4,5.00,0.00,29.7,28.6,00.0,38.6,31.4,25.1,0000.3,0012.53,0006.30,0005.41
2022-06-26 22:49:00,,0835.4,5.01,0.00,29.7,28.6,00.0,38.6,31.4,25.2,-000.2,0012.47,0006.27,0005.39
2022-06-26 22:50:00,,0835.3,5.01,0.00,29.7,28.6,00.0,38.6,31.4,25.3,-000.4,0012.43,0006.30,0005.37
2022-06-26 22:51:00,,0835.4,5.01,0.00,29.6,28.6,00.0,38.6,31.4,25.3,-000.9,0012.11,0006.29,0005.35
2022-06-26 22:52:00,,0835.3,5.00,0.00,29.6,28.6,00.0,38.6,31.4,25.6,-000.5,0012.09,0006.25,0005.33
2022-06-26 22:53:00,,0835.2,5.01,0.00,29.6,28.6,00.0,38.6,31.4,25.7,0000.3,0012.16,0006.20,0005.31
2022-06-26 22:54:00,,0835.2,5.01,0.00,29.6,28.5,00.0,38.6,31.3,25.8,0000.8,0011.86,0006.15,0005.30
2022-06-26 22:55:00,,0835.1,4.99,0.00,29.6,28.5,00.0,38.6,31.3,26.1,0000.6,0011.21,0006.13,0005.28
2022-06-26 22:56:00,,0835.2,5.00,0.00,29.6,28.5,00.0,38.6,31.3,25.8,0000.7,0011.33,0006.16,0005.27
2022-06-26 22:57:00,,0835.1,5.01,0.00,29.6,28.5,00.0,38.5,31.3,25.9,0000.2,0012.09,0006.19,0005.26
2022-06-26 22:58:00,,0835.1,5.00,0.00,29.6,28.5,00.0,38.5,31.3,25.8,0000.1,0012.84,0006.17,0005.24
2022-06-26 22:59:00,,0835.1,4.99,0.00,29.6,28.5,00.0,38.5,31.3,25.8,-000.3,0012.72,0006.19,0005.24
